MBSAT

operational
NORAD ID: 28184 Int'l Des: 2004-007 Owner: MBCO/TUMED Country: J
HEOCIRCULARGSO

MBSATについて

説明を読み込み中...

リアルタイム位置

3D地球を読み込み中...

次回通過

高度履歴

Altitude vs Time

uPlot chart will show altitude changes over time

軌道要素

1 28184U 04007A 26063.09776742 .00000029 00000-0 00000+0 0 9993
2 28184 5.7754 73.2861 0005365 272.8926 271.8321 1.00271841 51289
Epoch: Mar 4, 2026 • Age: 19 hours

現在のステータス

高度 35807.8 km
速度 3.07 km/s
衛星直下点 5.72°N, 60.94°E
打ち上げ日 Mar 13, 2004
運用期間 21.9 years
タイプ other

技術仕様

分類 Payload
質量 4143.00 kg
乾燥質量 2000.00 kg
総質量 4143.00 kg
長さ 5.60 m
直径 2.80 m
スパン 31.00 m
形状 Box + 2 Pan + Dish
製造者 LOR
バスタイプ SSL-1300
フェーズステータス Renamed
所有者/国 MBCO/TUMED/J

大規模コンステレーション

Loading constellations...